Regional Weather Roundup
Issued by NWS

Home | Current Version | Previous Version | Graphics & Text | Print | Product List | Glossary On
Versions: 1 2 3 4 5 6 7 8 9 10 11 12 13 14 15 16 17 18 19 20 21 22 23 24 25 26 27 28 29 30 31 32 33 34 35 36 37 38 39 40 41 42 43 44 45 46 47 48 49 50
000
ASUS43 KBIS 142202
RWRND

NORTH DAKOTA REGIONAL WEATHER ROUNDUP
NATIONAL WEATHER SERVICE BISMARCK ND
400 PM CST THU DEC 14 2017

NOTE: "FAIR" INDICATES FEW OR NO CLOUDS BELOW 12,000 FEET WITH NO
SIGNIFICANT WEATHER AND/OR OBSTRUCTIONS TO VISIBILITY.


NDZ001>003-009>011-017-142300-
NORTHWEST NORTH DAKOTA

CITY           SKY/WX    TMP DP  RH WIND       PRES   REMARKS
WILLISTON      PTCLDY    37  24  59 NW14      30.13F
MINOT          CLOUDY    35  25  66 W22G33    30.05S
MINOT AFB      CLOUDY    34  25  71 NW22G30   30.03F
$$

NDZ018>021-031>035-040>046-142300-
SOUTHWEST NORTH DAKOTA

CITY           SKY/WX    TMP DP  RH WIND       PRES   REMARKS
BISMARCK       CLOUDY    35  25  66 NW13G24   30.12S
DICKINSON      CLOUDY    33  24  69 W17       30.11S
GARRISON         N/A     35  24  64 NW18G26   30.07F
HETTINGER ARPT CLOUDY    33  24  69 NW17G25   30.16S
$$

NDZ004>008-012>016-024-026-027-054-142300-
NORTHEAST NORTH DAKOTA

CITY           SKY/WX    TMP DP  RH WIND       PRES   REMARKS
GRAND FORKS    FLURRIES  20  16  84 N6        30.06S WCI  12
GRND FRKS AFB  FLURRIES  22  17  82 E5        30.05S WCI  15
DEVILS LAKE    FLURRIES  29  24  82 NW15      30.03S WCI  18
$$

NDZ022-023-025-028>030-036>039-047>053-142300-
SOUTHEAST NORTH DAKOTA

CITY           SKY/WX    TMP DP  RH WIND       PRES   REMARKS
FARGO          CLOUDY    24  19  81 N7        30.07S WCI  16
JAMESTOWN      CLOUDY    29  26  89 NW10      30.05S WCI  20
$$





USA.gov is the U.S. government's official web portal to all federal, state and local government web resources and services.